カタログに戻る

STARLINK-34805

運用中通信SSO
NORAD 65071·PAYLOAD·🇺🇸 United States

打ち上げ Jul 31, 2025 から Vandenberg Space Force Base

Loading…

次のパス (今後24時間)

TLE

最新Source: CelesTrak SupGP

元期: Sep 14, 2026, 22:28 UTC

1 65071C 25165R   26257.93659722  .02151500  00000+0  74957-1 0  2576
2 65071  97.2841 329.1973 0001494  81.6264 152.7465 15.28640249    13

AllMySatでSTARLINK-34805をリアルタイム追跡

Download on the App Store